Regional Weather Roundup
Issued by NWS Little Rock, AR

Home | Current Version | Previous Version | Text Only | Print | Product List | Glossary On
Versions: 1 2 3 4 5 6 7 8 9 10 11 12 13 14 15 16 17 18 19 20 21 22 23 24 25 26 27 28 29 30 31 32 33 34 35 36 37 38 39 40 41 42 43 44 45 46 47 48 49 50
000
ASUS44 KLZK 301605
RWRLZK

WEATHER ROUNDUP FOR ARKANSAS
NATIONAL WEATHER SERVICE LITTLE ROCK AR
1100 AM CDT THU JUL 30 2015

NOTE: "FAIR" INDICATES FEW OR NO CLOUDS BELOW 12,000 FEET WITH NO
SIGNIFICANT WEATHER AND/OR OBSTRUCTIONS TO VISIBILITY.

ARZ001-003-010-029-301700-
NORTHWEST ARKANSAS

CITY           SKY/WX    TMP DP  RH WIND       PRES   REMARKS
FAYETTEVILLE   SUNNY     83  73  72 E6        30.18S HX  89
FORT SMITH     MOSUNNY   87  72  60 E8        30.13R HX  93
HARRISON       MOSUNNY   80  61  52 E9        30.23R
BENTONVILLE    SUNNY     82  66  57 SE10      30.21R HX  85
ROGERS         MOSUNNY   82  65  56 E13       30.21S
SILOAM SPGS    SUNNY     82  66  57 E8        30.17S HX  85
HIGHFILL       SUNNY     83  70  64 E9        30.20R HX  87
SPRINGDALE     SUNNY     81  68  65 E9        30.21S
$$

ARZ004-005-016-301700-
NORTH CENTRAL ARKANSAS

CITY           SKY/WX    TMP DP  RH WIND       PRES   REMARKS
BATESVILLE     SUNNY     84  63  48 NE7       30.17R HX  85
FLIPPIN        SUNNY     81  61  50 E3        30.18S
MTN HOME       SUNNY     80  62  54 NE5       30.20S
$$

ARZ040-041-301700-
WEST CENTRAL ARKANSAS

CITY           SKY/WX    TMP DP  RH WIND       PRES   REMARKS
MENA           SUNNY     90  77  66 NE6       30.15S HX 102
MOUNT IDA      SUNNY     89  74  60 VRB6      30.12S HX  98
$$

ARZ009-017-025-026-028-301700-
NORTHEAST ARKANSAS

CITY           SKY/WX    TMP DP  RH WIND       PRES   REMARKS
JONESBORO      SUNNY     81  66  60 NE12      30.14S
NEWPORT        SUNNY     83  67  58 NE9       30.17R HX  85
WALNUT RIDGE   SUNNY     82  61  47 NE14      30.16R
BLYTHEVILLE    SUNNY     83  66  56 NE13      30.14R HX  85
$$

ARZ022-023-033-042-044-301700-
CENTRAL ARKANSAS

CITY           SKY/WX    TMP DP  RH WIND       PRES   REMARKS
LITTLE ROCK    SUNNY     88  69  53 NE13G20   30.13R HX  92
N LITTLE ROCK  SUNNY     91  69  48 E15       30.13R HX  96
JACKSONVILLE   SUNNY     87  65  49 E12       30.14R HX  88
SEARCY         SUNNY     86  66  51 E13       30.16R HX  88
HOT SPRINGS    SUNNY     89  72  56 E10       30.13R HX  96
RUSSELLVILLE   MOSUNNY   87  66  49 E8        30.14S HX  89
CLINTON        LGT RAIN  84  64  51 NE5       30.18S HX  86
$$

ARZ036-301700-
EAST ARKANSAS

CITY           SKY/WX    TMP DP  RH WIND       PRES   REMARKS
WEST MEMPHIS   SUNNY     85  64  49 E14       30.11R HX  86
$$

ARZ050-053-066-070-073-301700-
SOUTHWEST ARKANSAS

CITY           SKY/WX    TMP DP  RH WIND       PRES   REMARKS
ARKADELPHIA    FAIR      92  77  61 VRB6      30.11R HX 105
CAMDEN         SUNNY     91  75  59 NE6       30.08S HX 102
TEXARKANA      SUNNY     92  76  59 MISG      30.09S HX 104
EL DORADO      SUNNY     93  77  59 N8        30.08R HX 107
DE QUEEN       SUNNY     91  78  65 VRB5      30.08S HX 106
$$

ARZ056-057-069-301700-
SOUTHEAST ARKANSAS

CITY           SKY/WX    TMP DP  RH WIND       PRES   REMARKS
PINE BLUFF     SUNNY     88  74  63 NE10      30.11R HX  96
STUTTGART      SUNNY     86  70  58 NE13      30.12R HX  90
MONTICELLO     SUNNY     91  79  67 VRB7      30.08R HX 107

$$




USA.gov is the U.S. government's official web portal to all federal, state and local government web resources and services.